Location: Newark
(0.5300°S, 127.4800°E)
Time: 20:33:55
(UTC+00:00)

A-11 Canister half - Pass Details

Date: 18 September 2019
Orbit: 1514 x 1686 km, 47.2° (Epoch: 21 October)

Event Time Altitude Azimuth Distance (km) Brightness Sun altitude
Rises 23:16:08 0° 227° (SW) 4,842 11.2 28.0°
Reaches altitude 10° 23:19:20 10° 230° (SW) 3,832 10.7 28.8°
Maximum altitude 23:28:54 64° 309° (NW) 1,708 9.5 31.2°
Drops below altitude 10° 23:38:08 10° 29° (NNE) 3,695 11.5 33.5°
Sets 23:41:11 0° 33° (NNE) 4,662 12.0 34.2°
